Weather History for Burley, ID

Change the Weather History Date:

Sunday, October 28, 2012

  Actual Average Record
Temperature  
Mean Temperature 55 °F 43 °F  
Max Temperature 65 °F 56 °F 76 °F (1968)
Min Temperature 44 °F 31 °F 16 °F (1970)
Degree Days  
Heating Degree Days 10 22  
Month to date heating degree days 464 472  
Since 1 July heating degree days 556 742  
Cooling Degree Days 0 0  
Month to date cooling degree days 0 0  
Year to date cooling degree days 546 365  
Growing Degree Days 5 (Base 50)    
Moisture  
Dew Point 41 °F    
Average Humidity 60    
Maximum Humidity 77    
Minimum Humidity 43    
Precipitation  
Precipitation T in 0.02 in 0.34 in (1967)
Month to date precipitation 0.68 0.67  
Year to date precipitation 7.48 7.98  
Sea Level Pressure  
Sea Level Pressure 30.04 in    
Wind  
Wind Speed 5 mph (SW)    
Max Wind Speed 14 mph    
Max Gust Speed 18 mph    
Visibility 10 miles    
Events Rain    
T = Trace of Precipitation, MM = Missing Value Source: NWS Daily Summary

Daily Weather History Graph

Daily Weather History Graph

Search for Another Location

Airport:

Trip Planner

Search our weather history database for the weather conditions in past years. The results will help you decide how hot, cold, wet, or windy it might be!

Date:

Astronomy

Oct. 28, 2012 Rise Set
Actual Time 8:04 AM MDT 6:32 PM MDT
Civil Twilight 7:35 AM MDT 7:01 PM MDT
Nautical Twilight 7:02 AM MDT 7:34 PM MDT
Astronomical Twilight 6:29 AM MDT 8:07 PM MDT
Moon 5:52 PM MDT (10/28) 7:00 AM MDT (10/28)
Length of Visible Light 11h 26m
Length of Day
10h 28m
Waxing Gibbous, 99% of the Moon is Illuminated
Oct 28
Waxing Gibbous
Oct 29
Full
Nov 6
Last Quarter
Nov 13
New
Nov 20
First Quarter

Hourly Weather History & Observations

Time (MDT) Temp. Dew Point Humidity Pressure Visibility Wind Dir Wind Speed Gust Speed Precip Events Conditions
12:53 AM 46.9 °F 36.0 °F 66% 30.08 in 10.0 mi Calm Calm - N/A   Overcast
1:53 AM 46.0 °F 34.0 °F 63% 30.09 in 10.0 mi Calm Calm - 0.00 in   Overcast
2:53 AM 46.9 °F 39.0 °F 74% 30.07 in 10.0 mi SSW 5.8 mph - N/A   Overcast
3:53 AM 50.0 °F 39.9 °F 68% 30.05 in 10.0 mi SW 9.2 mph - N/A   Overcast
4:53 AM 46.9 °F 39.9 °F 77% 30.07 in 10.0 mi WSW 6.9 mph - 0.00 in Rain Light Rain
5:53 AM 48.0 °F 39.0 °F 71% 30.08 in 10.0 mi SW 9.2 mph - 0.00 in Rain Light Rain
6:53 AM 46.9 °F 42.1 °F 83% 30.09 in 10.0 mi SSW 5.8 mph - 0.00 in   Overcast
7:53 AM 48.0 °F 39.0 °F 71% 30.09 in 10.0 mi SSW 10.4 mph - N/A   Overcast
8:53 AM 50.0 °F 39.9 °F 68% 30.08 in 10.0 mi SSW 9.2 mph - N/A   Mostly Cloudy
9:53 AM 51.1 °F 39.0 °F 63% 30.09 in 10.0 mi SSW 10.4 mph - N/A   Overcast
10:53 AM 55.9 °F 43.0 °F 62% 30.07 in 10.0 mi SSW 6.9 mph - 0.00 in   Mostly Cloudy
11:53 AM 60.1 °F 42.1 °F 51% 30.06 in 10.0 mi SSW 9.2 mph - N/A   Overcast
12:53 PM 61.0 °F 43.0 °F 52% 30.04 in 10.0 mi West 5.8 mph - N/A   Overcast
1:53 PM 64.0 °F 43.0 °F 46% 30.02 in 10.0 mi WNW 8.1 mph - N/A   Overcast
2:53 PM 62.1 °F 42.1 °F 48% 30.00 in 10.0 mi WNW 8.1 mph - N/A   Mostly Cloudy
3:53 PM 64.9 °F 41.0 °F 42% 29.97 in 10.0 mi NW 5.8 mph - N/A   Clear
4:53 PM 64.0 °F 41.0 °F 43% 29.99 in 10.0 mi Variable 3.5 mph - N/A   Clear
5:53 PM 61.0 °F 41.0 °F 48% 29.99 in 10.0 mi Calm Calm - N/A   Clear
6:53 PM 55.0 °F 44.1 °F 67% 30.01 in 10.0 mi Calm Calm - N/A   Clear
7:53 PM 50.0 °F 42.1 °F 74% 30.02 in 10.0 mi Calm Calm - N/A   Scattered Clouds
8:53 PM 52.0 °F 43.0 °F 71% 30.01 in 10.0 mi SSW 3.5 mph - N/A   Overcast
9:53 PM 51.1 °F 42.1 °F 71% 30.02 in 10.0 mi Calm Calm - N/A   Overcast
10:53 PM 48.9 °F 41.0 °F 74% 30.02 in 10.0 mi SSW 3.5 mph - N/A   Partly Cloudy
11:53 PM 48.0 °F 39.9 °F 74% 30.01 in 10.0 mi Calm Calm - N/A   Clear